DECAYED

OBJECT A, 51824 (Decayed)

Orbit data source: Space-Track

You're viewing an Uncataloged Satellite

Recently launched and/or uncataloged satellites may have evolving metadata. Metadata may include but not limited to: Owner, Maufacturer, Bus, Motor, and Mission.

OBJECT A, 51824 was a Chinese satellite in LEO that was launched on Sun, 27 Feb 2022 UTC via a CHANG ZHENG 8 launch vehicle from the Wenchang Satellite Launch Center (WSC). Unknown objects in Earth's orbit typically refer to objects detected orbiting the Earth but have not yet been identified or cataloged. These objects could be anything from previously untracked satellites, spent rocket stages, debris from satellite collisions, or even natural meteoroids temporarily captured by Earth's gravity. This object's orbit decayed before it could be identified.

Not visible in the next 10 days
Identifier
51824, 2022-019A
Orbit
Decayed
Country
Flag of CNCN / PRC
Related business
None
Manufacturer
Unknown
Mission
Decayed Commercial Radar Imaging
Bus & Motor
Unknown
Mass
Unknown
Launch date (UTC)
2022-02-27 (4 years ago)
Launch vehicle
CHANG ZHENG 8
Launch site
Wenchang Satellite Launch Center (WSC)
Object type
Unknown
Shape & HBR
Box + 3 Pan, 3.0 m
Radar Cross Section
3.533 m², Large (>1 m²)

Expand to show TLE details & history
Last TLE update: 6 months ago

TLE from 6 months ago
0 OBJECT A
1 51824U 22019A   26001.67406597  .13547712  25473-5  24614-3 0  9993
2 51824  97.3609  98.1254 0009626 276.2967  83.7240 16.47108187214450
Epoch: 2026-01-01T16:10Z
TLE epoch observation values (Epoch: 2026-01-01T16:10:39.299Z)
Latitude
-0.00002°
Longitude
114.13641°
Altitude
149.543 km
Speed
7.817 km/s
True Right ascension
06h 32m 30s
True Declination
0° 00' 00"
Sunlit
Object was in full shadow at epoch
Visualization orbit readout
Latitude
Unknown
Longitude
Unknown
Altitude
Unknown
Speed
Unknown
Apparent Right ascension
Unknown
Apparent Declination
Unknown
Sunlit
N/A
Visualization observer readout
Local Sidereal Time
21:58:20
Azimuth
Unknown
Elevation
Unknown
Doppler factor
Unknown
Orbital elements
Apogee altitude
150.036 km
Perigee altitude
137.48 km
Semi-major axis
6,521.895 km
Eccentricity
0.00096
Inclination
97.3609°
RAAN
98.1254°
Arg. of periapsis
276.2967°
True anomaly
83.83366°
Mean anomaly
83.724°
Eccentric anomaly
83.77883°
Mean motion
4.12081 °/min
Orbital period
87.36 mins
BSTAR
0.00024614
Loading maneuver chart data...
Computing Atmospheric mass density...
Loading historical data...
Loading historical data...
Loading historical data...
Loading historical data...
Loading historical data...
Loading historical data...
Loading historical data...

Documentation

Showing up to 5 results
|